Flag for Germany Weather past 2 weeks in Wertheim, Baden-Württemberg, Germany

Now
93 °F

Passing clouds.


Feels Like: 92 °F
Forecast: 61 / 71 °F
Wind: 5 mph from Southwest

Location: Wuerzburg

Current Time: Jul 7, 2015 at 3:20:54 PM

Latest Report: Jul 7, 2015 at 3:00 PM


Visibility: 28 mi

Pressure: 29.80 "Hg

Humidity: 30%

Dew point: 57 °F

Location of WertheimLocation

Historic Weather in Wertheim — Graph

°F

Wertheim temperature yesterday

Maximum temperature yesterday: 84 °F (at 6:00 PM)
Minimum temperature yesterday: 67 °F (at 7:00 AM)
Average temperature yesterday: 75 °F

Past Weeks' High & Low Weather Summary

 TemperatureHumidityPressure
High100 °F (Jul 5, 5:00 PM)97% (Jun 22, 11:00 PM)30.26 "Hg (Jun 22, 11:00 PM)
Low48 °F (Jun 23, 6:00 AM)21% (Jul 5, 5:00 PM)29.72 "Hg (Jun 23, 1:00 AM)
Average71 °F59%30.10 "Hg
* Reported Jun 22 2:00 PM — Jul 7 2:00 PM, Wertheim, Weather by CustomWeather, © 2015

Note: Actual official high and low records may vary slightly from our data, if they occured in-between our weather recording intervals... More about our weather records

Advertising

Wertheim weather history for previous 24 hours

 ConditionsComfort  
Time TempWeatherWind HumidityBarometerVisibility
2:00 PM
Tue, Jul 7
91 °FPassing clouds.2 mph32%29.83 "Hg28 mi
1:00 PM87 °FPassing clouds.1 mph36%29.86 "Hg28 mi
12:00 PM85 °FPassing clouds.1 mph42%29.90 "Hg25 mi
11:00 AM80 °FPassing clouds.1 mph41%29.93 "Hg22 mi
10:00 AM74 °FPassing clouds.1 mph52%29.95 "Hg22 mi
9:00 AM71 °FPassing clouds.1 mph57%29.98 "Hg25 mi
8:00 AM65 °FPassing clouds.No wind65%30.01 "Hg25 mi
7:00 AM62 °FPassing clouds.1 mph70%30.03 "Hg25 mi
6:00 AM60 °FPassing clouds.1 mph73%30.04 "Hg19 mi
5:00 AM60 °FClear.1 mph71%30.05 "Hg22 mi
4:00 AM60 °FClear.No wind72%30.06 "Hg25 mi
3:00 AM62 °FClear.No wind64%30.07 "Hg25 mi
2:00 AM64 °FClear.1 mph63%30.08 "Hg25 mi
1:00 AM65 °FClear.No wind62%30.09 "Hg25 mi
12:00 AM69 °FClear.No wind49%30.09 "Hg28 mi
11:00 PM
Mon, Jul 6
72 °FClear.No wind41%30.08 "Hg28 mi
10:00 PM75 °FClear.1 mph36%30.08 "Hg28 mi
9:00 PM79 °FSunny.2 mph33%30.07 "Hg28 mi
8:00 PM82 °FSunny.2 mph33%30.07 "Hg28 mi
7:00 PM83 °FSunny.3 mph30%30.07 "Hg28 mi
6:00 PM84 °FPassing clouds.2 mph30%30.09 "Hg25 mi
5:00 PM83 °FPassing clouds.3 mph28%30.10 "Hg31 mi
4:00 PM82 °FPassing clouds.3 mph28%30.12 "Hg31 mi
3:00 PM81 °FSunny.6 mph36%30.13 "Hg31 mi
Weather by CustomWeather, © 2015

See weather overviewHow to use our weather pages